Flag for Germany Weather past 2 weeks in Cloppenburg, Lower Saxony, Germany

Now
34 °F

Chilly.


Feels Like: 30 °F
Forecast: 34 / 44 °F
Wind: 5 mph from Southwest

Location: Meppen-Mil

Current Time: Mar 3, 2015 at 11:43:49 PM

Latest Report: Mar 3, 2015 at 10:20 PM


Visibility: N/A

Pressure: 29.98 "Hg

Humidity: 87%

Dew point: 30 °F

Location of CloppenburgLocation

Historic Weather in Cloppenburg — Graph

°F

Cloppenburg temperature yesterday

Maximum temperature yesterday: 46 °F (at 2:20 PM)
Minimum temperature yesterday: 36 °F (at 7:20 PM)
Average temperature yesterday: 41 °F

Past Weeks' High & Low Weather Summary

 TemperatureHumidityPressure
High50 °F (Mar 1, 12:20 PM)100% (Feb 17, 1:20 AM)30.72 "Hg (Feb 17, 1:20 AM)
Low25 °F (Feb 17, 1:20 AM)49% (Mar 1, 12:20 AM)29.27 "Hg (Feb 21, 6:20 AM)
Average39 °F83%29.88 "Hg
* Reported Feb 16 10:20 PM — Mar 3 10:20 PM, Cloppenburg, Weather by CustomWeather, © 2015

Note: Actual official high and low records may vary slightly from our data, if they occured in-between our weather recording intervals... More about our weather records

Advertising

Cloppenburg weather history for previous 24 hours

 ConditionsComfort  
Time TempWeatherWind HumidityBarometerVisibility
10:20 PM
Tue, Mar 3
34 °FChilly.5 mph87%29.98 "HgN/A
9:20 PM34 °FChilly.5 mph93%29.98 "Hg6 mi
8:20 PM36 °FChilly.5 mph87%29.95 "HgN/A
7:20 PM37 °FChilly.6 mph87%29.92 "HgN/A
6:20 PM37 °FChilly.8 mph93%29.89 "HgN/A
5:20 PM39 °FChilly.10 mph87%29.89 "HgN/A
4:20 PM41 °FScattered showers. Partly sunny.13 mph87%29.86 "HgN/A
3:20 PM39 °FLight rain. Partly sunny.13 mph87%29.86 "HgN/A
2:20 PM39 °FLight rain. Partly sunny.12 mph87%29.89 "HgN/A
1:20 PM39 °FPartly sunny.13 mph87%29.92 "HgN/A
12:20 PM41 °FPartly sunny.12 mph81%29.92 "HgN/A
11:20 AM41 °FPartly sunny.10 mph76%29.95 "HgN/A
10:20 AM41 °FScattered clouds.14 mph76%29.95 "HgN/A
9:20 AM39 °FPassing clouds.10 mph75%29.95 "HgN/A
8:20 AM36 °FPassing clouds.10 mph87%29.95 "HgN/A
7:20 AM36 °FPassing clouds.9 mph87%29.95 "HgN/A
6:53 AM36 °FSprinkles. Partly cloudy.13 mph87%29.95 "HgN/A
6:20 AM36 °FPassing clouds.10 mph87%29.92 "HgN/A
5:20 AM36 °FChilly.9 mph81%29.92 "HgN/A
4:20 AM36 °FChilly.8 mph75%29.92 "HgN/A
3:20 AM37 °FChilly.9 mph75%29.92 "HgN/A
2:20 AM36 °FChilly.9 mph81%29.89 "HgN/A
1:20 AM37 °FChilly.8 mph75%29.89 "HgN/A
12:20 AM37 °FChilly.9 mph81%29.86 "Hg5 mi
11:20 PM
Mon, Mar 2
39 °FChilly.12 mph75%29.83 "Hg3 mi
Weather by CustomWeather, © 2015

See weather overviewHow to use our weather pages